Tracking 19570 objects as of 22-Feb-2019
HD Live streaming from Space Station
objects crossing your sky now

CLUSTER II-FM7

Track CLUSTER II-FM7 now!
CLUSTER II-FM7 is classified as:


NORAD ID: 26411
Int'l Code: 2000-041B
Perigee: 29,434.2 km
Apogee: 103,317.4 km
Inclination: 130.5 °
Period: 3,254.5 minutes
Semi major axis: 72746 km
RCS: 1.5887 m2 (large)
Launch date: July 16, 2000
Source: European Space Agency (ESA)
Launch site: TYURATAM MISSILE AND SPACE COMPLEX (TTMTR)
aabbcc
Your satellite tracking list
Your tracking list is empty




NASA's NSSDC Master Catalog

Two Line Element Set (TLE):
1 26411U 00041B   19054.88932568  .00000000  00000-0  00000+0 0  9996
2 26411 130.4813 339.1650 5078106 177.2100 359.5270  0.44246839 20214
Source of the keplerian elements: AFSPC